{"data":{"norad_id":45133,"intl_designator":"2020-008C","name":"ONEWEB-0020","alt_names":[],"object_type":"PAYLOAD","status":"ACTIVE","operator":null,"country":"UK","launch_date":"2020-02-06","launch_site_code":"TYMSC","launch_vehicle":null,"mission":null,"orbit_class":"UNKNOWN","rcs_meters":null,"size_class":null,"mass_kg":null,"dimensions":null,"purposes":["comms"],"wikipedia_slug":null,"has_3d_model":false,"image_url":null,"decayed_at":null,"tle_current":{"epoch":"2026-05-25T03:20:04.810848Z","epoch_age_seconds":59046,"freshness":"FRESH","line1":"1 45133U 20008C   26145.13894457 -.00000030  00000+0 -12156-3 0  9997","line2":"2 45133  87.8864  40.8543 0001831  78.3472 281.7860 13.10376766305322","mean_motion":13.10376766,"eccentricity":0.0001831,"inclination_deg":87.8864,"raan_deg":40.8543,"arg_perigee_deg":78.3472,"mean_anomaly_deg":281.786,"bstar":-0.00012156,"rev_number":30532,"period_min":109.89205832729,"perigee_km":1220.310351469,"apogee_km":1223.0934124675,"semimajor_km":7599.8388819682,"source":"CELESTRAK","updated_at":"2026-05-25T13:38:22.333116Z"}}}